Temperature
27 27 27 28 29 29 29 30 30 31 33 32 30 30 30 30 30 29 29 28 25 23 22 21 20 19 17 17 16 16 16 16 16 17 17 17 16 16 16 15 15 15 14 14
27 27 28 30 30 30 30 29 29 31 32 31 30 29 29 29 28 27 27 26 25 23 21 20 18 17 16 16 16 16 16 15 15 15 15 16 15 15 15 15 14 14 14 13
27 28 30 29 29 29 29 29 29 29 31 30 29 28 28 27 27 26 26 25 24 22 20 18 17 16 15 15 15 15 14 14 14 14 14 14 14 14 14 14 13 13 12 12
28 29 30 29 29 29 28 29 29 29 29 29 29 27 27 26 26 25 24 23 22 20 18 17 16 15 14 14 14 14 14 14 13 13 14 13 13 13 12 12 12 12 12 11
28 29 29 29 29 29 28 30 29 29 28 28 29 28 27 26 24 23 23 21 20 18 17 16 15 14 14 13 13 13 13 13 13 13 13 13 13 13 12 12 12 11 11 11
28 30 30 29 30 29 29 29 29 29 28 26 27 27 26 25 24 22 21 20 19 18 17 16 15 14 13 13 12 12 12 12 12 12 12 12 12 12 11 11 10 10 9 9
27 28 30 30 29 29 29 27 26 25 25 26 28 28 26 25 24 22 21 20 19 18 17 16 15 14 13 12 12 11 11 11 11 11 11 10 10 9 9 9 8 8 8 7
26 27 28 29 28 28 27 27 25 24 25 26 27 25 23 25 23 21 20 19 19 18 17 16 15 14 13 12 11 11 10 10 10 9 9 8 8 8 7 7 7 6 6 6
26 27 29 30 29 28 27 27 27 26 26 25 26 22 21 22 21 20 20 19 19 18 17 16 15 14 13 12 11 10 10 9 9 8 8 8 7 6 6 6 5 5 5 5
27 26 28 29 29 29 28 28 27 26 24 24 25 24 22 21 20 20 20 19 18 17 17 15 15 14 13 12 11 10 9 9 8 7 7 6 6 5 5 5 5 5 4 4
27 26 26 27 27 27 27 27 26 26 26 25 24 24 24 21 21 20 20 19 18 17 16 15 14 13 12 12 11 10 9 8 7 6 6 5 5 5 4 4 4 4 4 4
27 26 25 26 28 29 27 27 26 24 24 25 25 23 24 22 21 20 20 19 18 17 16 15 14 13 12 11 10 9 8 7 6 5 5 5 4 4 4 4 4 4 4 4
24 24 23 24 26 27 26 27 27 26 25 24 24 22 23 22 21 20 19 18 17 16 16 14 13 12 11 10 9 8 7 6 5 5 4 4 4 4 4 4 4 4 4 3
23 22 22 22 24 26 25 25 26 25 24 24 24 22 21 21 20 19 18 17 16 15 14 13 12 11 10 9 8 7 6 5 5 4 4 4 4 4 4 4 4 4 3 3
23 22 22 23 24 25 25 24 23 23 23 24 24 21 20 20 19 18 17 16 16 15 14 12 11 10 9 8 7 6 5 4 4 4 4 4 4 4 4 4 4 3 3 3
22 21 21 22 24 24 24 24 23 23 23 23 21 20 20 19 18 17 16 16 16 15 13 11 10 9 8 7 6 5 4 4 4 4 4 4 4 4 4 4 3 3 3 3
20 20 20 20 22 23 22 23 24 24 23 22 19 18 19 18 17 16 16 15 14 13 12 10 9 8 6 5 4 4 4 4 4 4 4 4 4 4 4 4 3 3 3 3
19 18 18 19 20 19 22 24 24 23 22 21 19 18 18 17 16 15 14 13 12 11 10 9 7 7 6 5 4 4 4 5 5 5 4 4 4 4 4 4 3 3 3 3
19 18 17 17 18 20 21 21 22 21 19 19 18 18 16 15 14 13 12 11 10 9 8 7 6 6 5 4 4 4 5 5 5 5 4 4 4 4 4 4 3 3 3 3
19 17 15 14 15 16 19 20 21 20 17 18 18 17 16 15 14 12 10 9 8 7 6 5 5 5 4 4 4 4 5 5 5 4 4 4 4 4 4 4 3 3 3 3
14 15 15 14 14 14 17 18 19 16 16 17 16 16 15 14 13 10 9 8 7 6 5 5 5 4 4 4 4 4 5 5 5 5 4 4 4 4 4 4 4 3 3 3
10 12 15 16 14 12 16 17 16 16 16 16 15 14 12 11 10 10 9 8 7 6 5 4 4 4 4 4 5 5 5 5 5 5 5 5 5 5 5 4 4 4 3 3
9 10 12 13 12 13 14 15 15 15 15 15 14 12 12 11 11 10 8 7 6 5 4 4 5 5 5 5 5 5 5 5 5 5 5 5 5 5 5 5 4 4 3 2
9 10 12 12 12 12 13 13 14 14 14 13 13 12 12 11 10 9 8 7 6 5 5 5 5 5 5 5 6 6 5 5 5 6 6 6 6 6 5 5 5 4 3 2
10 11 12 12 12 12 13 14 14 14 13 13 12 12 11 10 9 8 7 6 5 5 5 5 5 6 6 6 6 6 6 6 5 6 6 6 6 6 6 5 4 4 3 1
12 11 11 11 12 13 13 13 13 13 13 12 12 11 10 10 9 8 7 6 5 5 5 5 6 6 6 7 6 6 6 6 5 6 5 5 6 5 5 5 4 3 1 -0
Wind_Speed
15 15 17 19 20 20 21 21 20 14 7 7 9 9 6 0 1 3 2 7 16 18 14 12 15 15 13 12 9 6 5 4 3 2 2 2 2 1 1 2 7 7 7 9
17 20 21 20 20 21 22 20 17 14 10 6 8 9 5 4 3 5 8 11 12 14 14 15 17 17 15 12 8 7 7 5 4 3 2 2 2 2 3 4 7 8 8 7
21 20 21 21 22 21 16 15 17 17 16 11 10 13 10 9 7 6 6 10 12 13 15 16 18 17 17 16 14 13 11 10 9 7 4 3 4 4 5 6 6 7 7 6
22 21 21 16 17 16 15 17 19 18 18 13 14 15 14 15 12 10 9 11 14 16 17 16 16 16 16 16 15 15 14 14 13 11 10 10 8 7 6 5 4 5 7 7
21 21 20 19 16 16 18 17 19 18 16 18 16 16 13 18 16 13 12 13 15 16 16 16 15 15 15 15 15 14 14 14 13 13 13 11 10 8 6 6 6 6 6 8
22 21 19 20 17 17 18 18 15 12 13 18 19 18 13 18 19 17 15 15 16 17 17 16 15 14 14 14 14 13 12 11 11 11 10 10 9 8 8 7 7 7 7 7
23 21 20 16 16 18 16 14 11 13 15 18 17 18 3 20 23 21 19 17 17 17 16 15 15 14 13 13 12 11 11 10 9 9 8 8 7 8 8 8 9 9 9 8
20 17 21 18 17 15 15 17 16 15 16 15 14 7 9 14 19 20 19 18 17 17 16 15 13 12 12 11 11 10 10 9 9 8 8 7 7 8 9 10 10 10 9 8
20 19 16 20 20 19 18 17 19 18 20 18 6 10 10 14 17 18 18 17 16 16 15 14 12 11 10 10 9 9 8 8 9 9 9 8 10 10 10 9 9 9 9 10
22 21 18 12 17 21 21 18 11 16 17 18 18 13 16 21 19 18 18 17 16 15 13 12 10 9 8 7 8 7 8 8 9 10 10 11 11 10 10 10 10 10 10 9
23 21 23 19 18 20 16 17 17 16 16 18 18 7 13 21 19 18 17 16 16 14 12 10 9 9 8 8 9 9 9 10 10 10 10 10 10 11 11 10 10 9 9 9
14 15 20 24 20 18 19 19 18 14 17 17 15 3 14 19 19 17 16 16 15 13 11 10 9 8 8 8 9 9 9 9 10 9 9 9 10 10 10 10 10 9 9 9
10 9 16 21 22 19 18 20 19 16 14 15 16 6 14 17 17 16 17 16 13 10 9 9 9 8 8 8 8 8 8 8 8 9 9 8 9 10 10 10 9 9 9 9
5 13 18 21 19 18 19 20 20 19 17 17 18 13 17 17 17 16 16 14 12 9 7 7 7 7 7 7 8 8 7 8 8 9 9 8 8 9 9 9 8 8 8 8
9 17 21 24 24 23 18 15 18 21 22 20 14 15 20 17 16 16 15 12 11 9 8 7 6 6 6 7 7 7 7 7 8 9 9 8 8 8 7 7 7 7 8 10
9 16 21 25 27 26 26 19 18 20 21 20 4 15 18 18 17 15 13 11 9 8 8 7 5 5 6 6 7 7 6 7 7 8 8 8 7 7 7 7 7 7 7 8
12 13 21 24 27 26 27 22 20 16 16 11 9 14 20 20 18 15 12 9 9 8 8 6 6 6 5 5 5 5 6 7 7 7 7 7 7 7 7 9 8 8 7 7
15 15 14 21 25 28 18 13 16 10 7 11 21 22 20 19 17 14 11 10 10 9 7 6 6 5 4 3 3 5 6 6 6 6 7 7 8 8 8 7 8 8 7 7
16 16 13 16 23 25 11 6 7 8 14 18 23 22 22 21 19 14 13 12 11 9 7 5 4 3 3 2 3 5 6 6 6 7 7 8 8 9 9 8 8 7 6 6
18 13 10 10 14 16 9 6 3 12 10 16 20 21 20 18 12 11 12 12 10 9 6 4 2 2 2 2 3 5 6 6 7 8 8 7 7 8 9 7 7 7 6 7
13 17 19 18 12 2 1 7 8 7 10 17 19 18 14 12 12 14 13 11 9 7 5 3 2 2 1 1 4 6 7 7 7 8 8 8 7 8 7 5 6 7 6 7
5 11 18 15 9 3 4 10 7 8 17 18 19 19 20 19 17 14 13 11 8 6 5 3 2 2 0 2 5 7 7 7 8 8 9 8 7 8 8 6 6 5 5 6
2 4 2 2 4 8 4 8 12 15 18 19 20 20 17 16 15 13 12 9 8 7 5 3 2 2 0 2 4 6 7 7 8 8 8 7 8 6 5 5 6 5 4 7
2 4 5 9 11 12 10 12 12 16 19 19 19 17 16 15 14 12 10 9 8 7 5 3 2 2 1 2 4 4 6 7 8 8 7 8 7 5 6 5 4 6 8 9
1 2 4 12 14 14 14 15 18 19 19 19 18 17 16 15 13 11 9 8 7 7 5 3 2 2 3 3 3 5 6 6 7 8 6 10 8 7 6 7 8 9 11 10
3 3 3 8 12 12 15 17 20 19 19 19 18 17 15 13 11 10 10 8 7 7 5 3 2 3 4 4 6 6 6 7 8 8 8 9 8 7 8 7 9 13 11 11
Wind_Direction
217 223 229 231 231 240 257 269 284 283 242 210 220 247 254 139 340 310 332 81 93 83 75 68 78 91 109 129 155 179 148 123 122 115 148 128 131 131 73 71 77 63 42 29
231 229 235 241 243 246 247 260 272 278 271 229 238 245 195 120 90 50 69 80 84 94 83 72 70 74 79 89 98 83 72 61 44 50 29 46 49 30 56 53 56 45 34 16
232 240 233 234 245 251 252 262 266 266 266 216 221 239 192 142 128 113 96 87 81 76 77 70 65 66 68 68 65 65 60 50 39 34 27 39 30 25 35 38 40 16 356 346
243 248 253 251 244 246 248 250 256 262 268 246 211 237 189 150 139 127 109 97 90 80 77 74 70 70 72 73 70 66 60 53 45 41 36 37 40 32 27 16 40 356 338 342
247 247 247 243 238 251 254 253 261 252 254 265 247 235 176 155 148 131 113 102 97 94 91 88 86 85 83 80 75 69 63 57 49 44 41 38 32 19 8 356 2 351 337 338
254 255 247 246 237 239 251 252 257 260 252 248 250 253 192 169 153 141 129 120 114 110 106 103 99 92 86 81 78 73 67 62 55 48 41 34 21 359 344 340 337 342 334 323
247 246 252 243 244 233 235 243 237 236 240 248 245 248 177 148 152 150 143 137 131 125 118 112 103 94 85 76 71 67 61 55 48 43 36 22 6 336 335 349 345 336 321 319
243 234 235 226 231 239 222 235 240 243 244 243 241 240 101 118 134 137 141 141 137 126 115 109 104 98 90 78 64 57 50 40 30 23 18 359 356 350 343 346 333 318 318 328
256 256 233 221 215 228 236 224 238 254 266 276 244 126 152 138 136 142 147 145 133 119 118 115 107 96 87 79 66 49 41 29 21 10 5 356 4 352 339 330 321 324 330 323
252 269 277 257 221 217 232 246 247 242 254 263 264 201 171 166 161 158 156 146 129 124 122 114 109 99 89 82 78 55 41 24 18 8 4 355 352 344 338 332 333 332 331 330
236 248 261 262 225 223 220 235 251 262 259 254 259 257 145 166 162 160 156 143 138 136 132 127 115 98 83 60 48 38 28 19 14 8 5 358 351 347 342 339 338 336 329 325
272 249 246 250 250 230 237 239 233 241 255 262 268 144 150 154 151 157 155 143 135 132 130 121 102 83 64 47 37 31 20 16 10 6 4 1 351 347 343 337 334 331 327 325
324 290 253 245 245 238 234 244 246 242 245 250 255 146 133 144 149 152 140 129 123 122 110 101 87 69 49 34 31 21 20 18 7 1 357 353 344 339 335 329 327 327 326 325
278 276 264 253 251 247 234 238 247 251 248 246 248 163 156 155 149 139 130 130 132 130 120 94 78 60 37 29 20 11 17 10 360 353 345 341 334 328 325 324 324 328 331 335
254 261 262 263 266 268 260 243 255 263 265 263 250 163 160 154 143 136 134 139 141 141 123 98 70 49 28 20 12 14 9 360 348 338 335 335 331 327 327 328 334 342 345 349
244 248 257 261 261 263 264 254 237 245 255 267 130 130 144 136 132 136 142 147 145 126 103 82 58 42 31 15 7 6 350 340 332 326 326 330 333 337 343 341 354 351 348 349
283 253 247 250 253 257 254 256 256 243 229 234 156 140 137 136 139 139 137 135 119 99 83 65 48 44 31 25 11 347 335 328 324 322 329 341 346 349 350 345 346 344 345 346
261 261 254 249 245 245 250 270 273 254 130 104 120 140 140 132 122 114 110 103 93 83 71 59 40 30 30 37 5 335 328 336 345 350 350 348 347 345 337 333 339 339 338 336
249 247 248 247 243 240 210 202 227 148 118 122 128 130 125 121 113 99 88 87 86 83 76 65 39 28 46 29 354 335 331 347 351 355 350 348 343 334 324 331 336 332 331 331
247 228 229 246 247 238 201 172 129 118 128 132 130 129 132 140 140 124 107 99 94 85 73 53 32 49 68 27 345 326 326 337 345 341 333 326 322 316 313 328 331 330 329 338
266 240 225 231 238 287 103 144 125 153 149 132 126 125 120 102 102 116 112 104 99 92 80 58 52 68 56 357 323 315 319 335 333 320 309 302 298 297 303 324 320 327 344 351
279 264 241 232 209 187 223 162 155 127 124 126 121 111 106 106 111 116 113 109 104 100 89 75 77 87 101 311 308 313 328 333 322 310 304 301 293 299 314 310 309 329 1 360
293 279 283 48 109 125 95 72 100 115 119 120 116 116 119 119 118 113 107 102 98 96 97 96 97 102 95 302 306 323 330 328 320 311 311 304 296 296 305 306 319 336 15 11
325 315 118 103 110 111 113 122 117 114 113 114 116 120 121 118 114 111 108 105 105 106 112 122 104 72 30 328 321 323 338 333 325 323 333 321 315 343 329 323 353 13 28 26
275 341 78 111 125 128 140 131 123 117 115 115 114 111 111 110 108 108 107 109 113 118 117 105 60 25 5 339 358 6 356 336 339 332 356 335 343 2 341 24 47 67 64 67
70 79 105 132 139 137 130 124 122 119 116 112 108 104 102 102 104 106 110 117 127 130 127 111 61 23 4 16 29 22 3 359 358 352 6 344 356 3 3 30 74 80 101 98
Height
1491 1493 1491 1486 1481 1481 1479 1477 1475 1464 1457 1465 1474 1479 1480 1482 1485 1488 1490 1492 1497 1502 1508 1512 1514 1514 1515 1517 1520 1524 1527 1529 1531 1532 1532 1531 1532 1532 1533 1532 1532 1531 1532 1533
1487 1487 1480 1476 1474 1473 1474 1477 1475 1467 1461 1468 1476 1480 1480 1485 1489 1492 1495 1498 1502 1506 1511 1515 1516 1517 1518 1520 1522 1525 1526 1529 1530 1531 1532 1532 1532 1532 1532 1531 1530 1529 1529 1530
1482 1475 1470 1471 1473 1473 1473 1478 1477 1473 1464 1465 1477 1483 1481 1485 1491 1496 1499 1502 1505 1509 1513 1515 1517 1518 1520 1522 1524 1525 1526 1528 1530 1531 1531 1531 1531 1530 1530 1529 1528 1528 1527 1527
1472 1467 1465 1466 1467 1468 1477 1472 1471 1471 1473 1473 1475 1489 1481 1485 1492 1498 1502 1505 1509 1512 1515 1518 1520 1521 1522 1524 1525 1526 1527 1528 1529 1530 1530 1530 1530 1530 1530 1529 1527 1527 1526 1525
1468 1463 1463 1465 1467 1468 1470 1466 1465 1466 1472 1474 1468 1479 1481 1483 1495 1501 1506 1510 1513 1516 1519 1522 1524 1526 1526 1526 1526 1527 1527 1528 1529 1530 1530 1530 1530 1530 1529 1527 1526 1524 1523 1522
1460 1457 1456 1457 1458 1462 1463 1464 1465 1465 1470 1484 1473 1475 1477 1480 1491 1501 1508 1512 1516 1519 1522 1525 1528 1529 1530 1530 1530 1530 1530 1530 1530 1530 1530 1530 1529 1528 1527 1525 1523 1521 1519 1518
1462 1456 1452 1453 1458 1458 1462 1473 1486 1491 1489 1483 1464 1468 1474 1473 1485 1496 1505 1511 1515 1518 1522 1526 1529 1531 1532 1533 1533 1533 1532 1532 1532 1531 1530 1529 1528 1526 1525 1522 1520 1517 1515 1513
1463 1462 1451 1449 1456 1459 1463 1470 1486 1494 1488 1475 1465 1476 1487 1480 1487 1497 1505 1510 1514 1517 1521 1525 1530 1532 1534 1535 1535 1535 1534 1534 1532 1531 1529 1528 1526 1524 1521 1519 1516 1513 1511 1508
1458 1454 1440 1442 1447 1454 1460 1463 1462 1473 1473 1477 1473 1489 1493 1490 1495 1500 1505 1509 1512 1516 1521 1526 1530 1533 1535 1536 1536 1536 1535 1534 1532 1530 1528 1526 1523 1520 1517 1514 1512 1509 1506 1503
1451 1456 1444 1441 1444 1447 1452 1454 1460 1470 1484 1486 1471 1472 1483 1490 1495 1500 1504 1508 1512 1517 1522 1527 1531 1534 1536 1537 1536 1536 1535 1534 1531 1529 1525 1523 1519 1516 1513 1511 1508 1505 1502 1499
1442 1453 1450 1443 1447 1450 1450 1456 1460 1462 1462 1475 1480 1476 1466 1480 1489 1497 1502 1507 1511 1517 1523 1528 1531 1534 1535 1536 1536 1535 1534 1532 1529 1526 1523 1519 1516 1513 1510 1507 1505 1502 1499 1496
1438 1443 1450 1444 1436 1436 1443 1447 1454 1469 1469 1463 1468 1480 1466 1476 1486 1495 1501 1506 1511 1517 1522 1527 1530 1533 1535 1536 1535 1534 1532 1530 1527 1524 1521 1517 1514 1511 1508 1505 1502 1500 1497 1494
1448 1450 1456 1454 1447 1439 1443 1443 1444 1448 1456 1463 1470 1481 1471 1480 1487 1494 1500 1507 1513 1519 1524 1527 1530 1532 1534 1535 1534 1533 1531 1529 1526 1523 1520 1516 1513 1510 1507 1504 1501 1499 1496 1493
1451 1454 1457 1459 1448 1439 1442 1443 1443 1448 1455 1458 1457 1469 1473 1480 1488 1495 1502 1509 1516 1521 1525 1528 1530 1532 1534 1534 1533 1532 1530 1527 1525 1521 1519 1516 1513 1510 1507 1504 1501 1498 1495 1492
1448 1453 1450 1446 1440 1437 1439 1446 1449 1452 1451 1453 1452 1461 1470 1479 1489 1497 1505 1511 1516 1521 1525 1528 1530 1532 1533 1533 1532 1530 1528 1526 1523 1521 1518 1516 1513 1510 1507 1504 1501 1498 1494 1491
1445 1450 1450 1448 1440 1438 1438 1439 1445 1448 1450 1451 1458 1466 1470 1480 1491 1500 1507 1512 1516 1521 1525 1528 1530 1531 1531 1531 1530 1528 1526 1524 1522 1520 1518 1516 1513 1511 1508 1504 1501 1497 1493 1490
1449 1450 1454 1452 1443 1441 1443 1438 1438 1439 1442 1450 1465 1475 1477 1485 1493 1501 1508 1513 1518 1522 1525 1528 1530 1530 1530 1529 1528 1527 1525 1523 1521 1519 1518 1516 1513 1510 1507 1504 1500 1496 1492 1488
1451 1453 1454 1452 1450 1455 1440 1432 1433 1436 1441 1448 1460 1473 1480 1488 1496 1504 1510 1515 1519 1523 1526 1528 1529 1529 1529 1528 1527 1526 1525 1523 1521 1519 1517 1515 1513 1510 1507 1503 1499 1495 1491 1487
1444 1449 1455 1456 1450 1441 1436 1435 1436 1441 1452 1456 1464 1475 1485 1492 1500 1508 1513 1517 1521 1524 1526 1527 1528 1528 1527 1527 1526 1525 1524 1523 1521 1519 1517 1515 1512 1509 1505 1502 1498 1494 1490 1486
1441 1445 1456 1460 1461 1454 1442 1437 1439 1447 1462 1462 1468 1477 1486 1493 1500 1511 1516 1519 1523 1525 1526 1526 1526 1527 1526 1526 1526 1525 1524 1523 1521 1519 1517 1514 1511 1508 1504 1501 1497 1493 1489 1485
1451 1445 1447 1452 1455 1455 1444 1443 1447 1464 1469 1468 1474 1482 1489 1495 1500 1512 1517 1521 1523 1525 1525 1525 1526 1526 1526 1526 1526 1525 1524 1522 1520 1518 1515 1512 1509 1506 1503 1499 1495 1491 1488 1485
1462 1456 1442 1438 1450 1465 1452 1451 1457 1462 1465 1471 1479 1487 1495 1501 1508 1514 1518 1521 1524 1525 1525 1525 1526 1526 1526 1526 1526 1525 1523 1522 1519 1516 1513 1511 1508 1505 1501 1498 1494 1490 1487 1484
1462 1456 1449 1450 1456 1457 1457 1459 1464 1467 1470 1477 1483 1491 1498 1504 1510 1515 1519 1522 1524 1525 1525 1526 1527 1527 1527 1527 1526 1525 1523 1521 1518 1515 1512 1509 1506 1503 1500 1496 1492 1490 1486 1483
1460 1455 1450 1454 1459 1460 1464 1470 1474 1477 1479 1483 1489 1495 1500 1506 1511 1516 1520 1522 1524 1525 1526 1527 1528 1529 1528 1527 1526 1525 1523 1521 1518 1515 1512 1508 1505 1502 1499 1495 1492 1489 1486 1482
1461 1457 1453 1456 1463 1467 1473 1476 1481 1484 1486 1489 1493 1498 1503 1508 1513 1517 1520 1523 1525 1526 1528 1529 1530 1530 1529 1528 1527 1525 1523 1521 1518 1514 1511 1508 1505 1502 1498 1494 1491 1488 1485 1482
1459 1461 1461 1463 1465 1469 1476 1480 1485 1487 1490 1493 1497 1502 1507 1511 1515 1518 1521 1523 1525 1528 1529 1531 1531 1530 1530 1528 1527 1526 1523 1521 1518 1515 1511 1509 1506 1502 1499 1496 1491 1488 1486 1483